Location: Bethel Church
(38.0159°N, 88.7292°W)
Time: 02:42:20
(UTC+00:00)

Sich 1 - Pass Details

Date: 08 December 2021
Orbit: 595 x 623 km, 82.5° (Epoch: 21 January)

Event Time Altitude Azimuth Distance (km) Brightness Sun altitude
Rises 12:24:13 0° 201° (SSW) 2,832 6.5 -6.9°
Reaches altitude 10° 12:26:30 10° 208° (SSW) 1,931 5.6 -6.5°
Maximum altitude 12:30:34 43° 281° (W) 846 3.3 -5.8°
Drops below altitude 10° 12:34:39 10° 353° (N) 1,937 5.3 -5.1°
Sets 12:36:57 0° 0° (N) 2,842 6.2 -4.7°
